EW1134 Weather Reports


Display with metric or nautical units.
time (UTC)temp
F
wind
direction
speed
MPH
gust
MPH
rain 1hr
in
rain 24hr
in
rain mn
in
humidity
%
barometer
mb
20260901052003 72 299 0.0 3.0 0.00 0.00 0.00 52 1015.0
20260901051503 72 185 0.0 2.0 0.00 0.00 0.00 52 1015.0
20260901051004 72 181 0.0 4.0 0.00 0.00 0.00 52 1015.0
20260901050503 71 181 1.0 4.0 0.00 0.00 0.00 52 1014.9
20260901050003 71 198 0.0 2.0 0.00 0.00 0.00 52 1014.9
20260901045003 70 257 0.0 2.0 0.00 0.00 0.00 53 1014.7
20260901044506 70 258 0.0 2.0 0.00 0.00 0.00 54 1014.8
20260901044003 70 231 0.0 3.0 0.00 0.00 0.00 54 1014.8
20260901043503 70 226 0.0 3.0 0.00 0.00 0.00 54 1014.7
20260901042504 69 236 1.0 4.0 0.00 0.00 0.00 54 1014.8
20260901042003 69 225 1.0 4.0 0.00 0.00 0.00 54 1014.7
20260901041503 69 239 0.0 4.0 0.00 0.00 0.00 54 1014.6
20260901041003 69 243 1.0 4.0 0.00 0.00 0.00 54 1014.6
20260901035503 69 230 1.0 5.0 0.00 0.00 0.00 54 1014.4
20260901034503 69 234 1.0 4.0 0.00 0.00 0.00 53 1014.5
20260901034003 69 241 0.0 4.0 0.00 0.00 0.00 53 1014.4
20260901033503 69 229 1.0 4.0 0.00 0.00 0.00 53 1014.3
20260901033004 69 228 1.0 4.0 0.00 0.00 0.00 53 1014.3
20260901032503 69 229 1.0 3.0 0.00 0.00 0.00 53 1014.2
20260901032003 69 227 1.0 4.0 0.00 0.00 0.00 52 1014.2
20260901031003 69 192 0.0 4.0 0.00 0.00 0.00 52 1014.3
20260901030503 69 219 1.0 4.0 0.00 0.00 0.00 52 1014.3
20260901030004 69 250 2.0 5.0 0.00 0.00 0.00 53 1014.2
20260901025503 69 252 1.0 5.0 0.00 0.00 0.00 53 1014.2
20260901025003 69 230 0.0 5.0 0.00 0.00 0.00 52 1014.3
20260901024504 69 208 0.0 2.0 0.00 0.00 0.00 51 1014.3
20260901024004 69 226 0.0 2.0 0.00 0.00 0.00 51 1014.3
20260901023004 69 177 0.0 2.0 0.00 0.00 0.00 50 1014.2
20260901022503 69 207 0.0 4.0 0.00 0.00 0.00 50 1014.4
20260901022003 69 239 1.0 4.0 0.00 0.00 0.00 50 1014.3
20260901021504 69 269 1.0 4.0 0.00 0.00 0.00 50 1014.2
20260901021003 69 243 1.0 4.0 0.00 0.00 0.00 50 1014.3
20260901020503 70 217 1.0 4.0 0.00 0.00 0.00 50 1014.2
20260901020004 70 207 1.0 4.0 0.00 0.00 0.00 49 1014.2
20260901015503 70 204 1.0 4.0 0.00 0.00 0.00 49 1014.3
20260901015004 70 221 1.0 4.0 0.00 0.00 0.00 49 1014.3
20260901014504 71 221 1.0 4.0 0.00 0.00 0.00 49 1014.3
20260901014003 71 208 1.0 4.0 0.00 0.00 0.00 49 1014.4
20260901013503 71 229 1.0 4.0 0.00 0.00 0.00 49 1014.3
20260901013003 71 270 1.0 4.0 0.00 0.00 0.00 49 1014.4
20260901012503 71 306 0.0 3.0 0.00 0.00 0.00 49 1014.4
20260901012004 71 245 0.0 2.0 0.00 0.00 0.00 49 1014.4
20260901011504 71 213 0.0 2.0 0.00 0.00 0.00 49 1014.1
20260901011004 71 219 1.0 4.0 0.00 0.00 0.00 49 1014.2
20260901010504 71 225 1.0 4.0 0.00 0.00 0.00 48 1014.2
20260901010004 70 220 0.0 4.0 0.00 0.00 0.00 49 1014.3
20260901005503 71 212 0.0 1.0 0.00 0.00 0.00 48 1014.3
20260901005003 71 225 0.0 2.0 0.00 0.00 0.00 48 1014.2
20260901004504 71 232 0.0 3.0 0.00 0.00 0.00 48 1014.4
20260901004003 71 217 1.0 3.0 0.00 0.00 0.00 47 1014.3
20260901003503 71 193 1.0 3.0 0.00 0.00 0.00 47 1014.3
20260901003004 71 183 0.0 3.0 0.00 0.00 0.00 47 1014.3
20260901002503 72 253 0.0 3.0 0.00 0.00 0.00 47 1014.3
20260901002003 72 247 0.0 3.0 0.00 0.00 0.00 47 1014.3
20260901001504 72 235 0.0 3.0 0.00 0.00 0.00 47 1014.3
20260901000502 72 259 0.0 4.0 0.00 0.00 0.00 47 1014.2
20260901000004 72 228 0.0 4.0 0.00 0.00 0.00 46 1014.2
20260831235503 72 208 1.0 4.0 0.00 0.00 0.00 47 1014.1
20260831235003 72 225 1.0 4.0 0.00 0.00 0.00 47 1014.2
20260831234504 72 259 0.0 4.0 0.00 0.00 0.00 47 1014.4
20260831234003 72 270 0.0 2.0 0.00 0.00 0.00 47 1014.1
20260831233503 72 266 0.0 3.0 0.00 0.00 0.00 46 1014.2
20260831233004 72 284 0.0 3.0 0.00 0.00 0.00 46 1014.3
20260831232504 72 276 0.0 4.0 0.00 0.00 0.00 46 1014.4
20260831232003 72 142 1.0 4.0 0.00 0.00 0.00 46 1014.4
20260831231504 73 101 0.0 3.0 0.00 0.00 0.00 46 1014.3
20260831231003 73 149 0.0 3.0 0.00 0.00 0.00 46 1014.4
20260831230503 73 194 0.0 4.0 0.00 0.00 0.00 46 1014.4
20260831230004 73 246 1.0 4.0 0.00 0.00 0.00 46 1014.3
20260831225504 73 272 1.0 5.0 0.00 0.00 0.00 46 1014.3
20260831223503 74 222 1.0 4.0 0.00 0.00 0.00 45 1014.5
20260831223003 74 228 2.0 5.0 0.00 0.00 0.00 45 1014.5
20260831222504 74 227 3.0 6.0 0.00 0.00 0.00 45 1014.5
20260831222003 75 228 3.0 7.0 0.00 0.00 0.00 44 1014.6
20260831221503 75 226 3.0 7.0 0.00 0.00 0.00 44 1014.7
20260831220503 75 241 1.0 4.0 0.00 0.00 0.00 44 1014.8
20260831220003 75 238 2.0 4.0 0.00 0.00 0.00 44 1014.7
20260831215504 75 226 2.0 4.0 0.00 0.00 0.00 44 1014.8
20260831215003 75 224 2.0 4.0 0.00 0.00 0.00 43 1014.8
20260831214503 75 223 1.0 4.0 0.00 0.00 0.00 43 1014.8
20260831214004 75 231 2.0 6.0 0.00 0.00 0.00 43 1014.9
20260831213503 75 227 4.0 6.0 0.00 0.00 0.00 43 1014.8
20260831213004 75 222 4.0 6.0 0.00 0.00 0.00 43 1014.8
20260831212503 75 225 3.0 6.0 0.00 0.00 0.00 43 1014.8
20260831211503 76 224 2.0 6.0 0.00 0.00 0.00 42 1014.7
20260831211004 76 229 2.0 4.0 0.00 0.00 0.00 42 1014.9
20260831210005 76 209 2.0 4.0 0.00 0.00 0.00 42 1014.8
20260831205504 76 224 2.0 4.0 0.00 0.00 0.00 42 1015.0
20260831205003 76 232 2.0 5.0 0.00 0.00 0.00 42 1014.8
20260831204504 77 225 3.0 5.0 0.00 0.00 0.00 42 1014.8
20260831204003 77 220 2.0 5.0 0.00 0.00 0.00 42 1014.7
20260831203503 77 218 2.0 4.0 0.00 0.00 0.00 41 1014.9
20260831203003 77 225 2.0 4.0 0.00 0.00 0.00 41 1014.8
20260831202503 77 225 2.0 4.0 0.00 0.00 0.00 41 1014.9
20260831202003 77 225 3.0 5.0 0.00 0.00 0.00 40 1014.9
20260831201504 77 225 3.0 5.0 0.00 0.00 0.00 40 1014.7
20260831201003 78 225 3.0 5.0 0.00 0.00 0.00 40 1014.8
20260831200503 78 225 2.0 4.0 0.00 0.00 0.00 39 1014.8
20260831200004 78 232 2.0 4.0 0.00 0.00 0.00 39 1014.7
20260831195504 78 236 2.0 4.0 0.00 0.00 0.00 38 1014.7
20260831195003 79 233 2.0 4.0 0.00 0.00 0.00 37 1014.8
20260831194503 80 218 2.0 4.0 0.00 0.00 0.00 36 1014.7
20260831194003 80 188 1.0 4.0 0.00 0.00 0.00 35 1014.7
20260831193503 80 134 0.0 4.0 0.00 0.00 0.00 35 1014.7
20260831193004 81 143 1.0 4.0 0.00 0.00 0.00 35 1014.7
20260831192503 81 158 1.0 4.0 0.00 0.00 0.00 35 1014.7
20260831191504 81 143 1.0 4.0 0.00 0.00 0.00 34 1014.3
20260831191003 81 128 1.0 5.0 0.00 0.00 0.00 34 1014.5
20260831190503 81 125 1.0 5.0 0.00 0.00 0.00 34 1014.4
20260831190004 81 131 0.0 4.0 0.00 0.00 0.00 34 1014.4
20260831185504 81 138 1.0 4.0 0.00 0.00 0.00 34 1014.3
20260831185003 81 119 1.0 4.0 0.00 0.00 0.00 34 1014.3
20260831184504 81 76 0.0 4.0 0.00 0.00 0.00 33 1014.3
20260831184002 82 61 1.0 4.0 0.00 0.00 0.00 33 1014.2
20260831183003 82 115 2.0 6.0 0.00 0.00 0.00 33 1013.9
20260831182504 82 127 1.0 4.0 0.00 0.00 0.00 33 1014.1
20260831182003 82 115 1.0 4.0 0.00 0.00 0.00 32 1014.0
20260831181503 82 105 1.0 4.0 0.00 0.00 0.00 32 1014.1
20260831181003 83 113 1.0 4.0 0.00 0.00 0.00 32 1013.9
20260831180503 83 108 1.0 4.0 0.00 0.00 0.00 32 1013.9
20260831180004 83 85 1.0 5.0 0.00 0.00 0.00 32 1013.9
20260831175504 83 75 2.0 7.0 0.00 0.00 0.00 31 1014.0
20260831175003 83 71 2.0 7.0 0.00 0.00 0.00 31 1013.9
20260831174504 83 85 2.0 5.0 0.00 0.00 0.00 31 1013.8
20260831174003 83 98 2.0 5.0 0.00 0.00 0.00 31 1014.0
20260831173503 84 93 2.0 6.0 0.00 0.00 0.00 31 1013.8
20260831173003 84 93 3.0 6.0 0.00 0.00 0.00 31 1013.9
20260831172004 84 79 4.0 9.0 0.00 0.00 0.00 31 1013.9
20260831171503 84 89 4.0 9.0 0.00 0.00 0.00 31 1013.8
20260831171003 84 96 3.0 9.0 0.00 0.00 0.00 31 1014.0
20260831170503 85 90 3.0 7.0 0.00 0.00 0.00 31 1013.9
20260831170004 85 84 3.0 10.0 0.00 0.00 0.00 31 1013.7
20260831165503 85 102 5.0 10.0 0.00 0.00 0.00 30 1013.9
20260831165005 85 102 6.0 12.0 0.00 0.00 0.00 30 1013.7
20260831164504 85 96 6.0 13.0 0.00 0.00 0.00 30 1013.8
20260831164003 85 96 6.0 13.0 0.00 0.00 0.00 30 1013.7
20260831163502 86 99 5.0 13.0 0.00 0.00 0.00 30 1013.7
20260831163004 86 113 5.0 12.0 0.00 0.00 0.00 30 1013.7
20260831162503 86 102 5.0 12.0 0.00 0.00 0.00 30 1013.7
20260831162006 86 91 5.0 11.0 0.00 0.00 0.00 29 1013.5
20260831161505 86 91 6.0 12.0 0.00 0.00 0.00 29 1013.6
20260831161006 86 90 6.0 12.0 0.00 0.00 0.00 29 1013.6
20260831160507 86 97 7.0 15.0 0.00 0.00 0.00 29 1013.4
20260831160006 87 87 7.0 15.0 0.00 0.00 0.00 28 1013.4
20260831155508 87 63 7.0 14.0 0.00 0.00 0.00 28 1013.5
20260831155006 87 74 7.0 14.0 0.00 0.00 0.00 28 1013.4
20260831154004 87 88 7.0 13.0 0.00 0.00 0.00 28 1013.3
20260831153503 88 311 8.0 13.0 0.00 0.00 0.00 28 1013.3
20260831152504 88 93 7.0 14.0 0.00 0.00 0.00 28 1013.6
20260831152004 88 87 8.0 13.0 0.00 0.00 0.00 28 1013.5
20260831151504 88 61 8.0 17.0 0.00 0.00 0.00 28 1013.4
20260831151003 88 69 8.0 17.0 0.00 0.00 0.00 27 1013.3
20260831150503 88 86 8.0 14.0 0.00 0.00 0.00 27 1013.5
20260831150004 88 92 9.0 16.0 0.00 0.00 0.00 27 1013.5
20260831145003 89 86 8.0 15.0 0.00 0.00 0.00 27 1013.5
20260831144504 89 96 8.0 15.0 0.00 0.00 0.00 26 1013.5
20260831144003 90 87 7.0 15.0 0.00 0.00 0.00 26 1013.4
20260831143503 90 62 7.0 14.0 0.00 0.00 0.00 27 1013.6
20260831143004 90 76 8.0 15.0 0.00 0.00 0.00 26 1013.6
20260831142503 90 71 8.0 15.0 0.00 0.00 0.00 26 1013.6
20260831142003 90 43 6.0 15.0 0.00 0.00 0.00 26 1013.7
20260831141504 91 67 6.0 13.0 0.00 0.00 0.00 26 1013.7
20260831141003 91 76 7.0 13.0 0.00 0.00 0.00 26 1013.7
20260831140503 91 62 6.0 122.0 0.00 0.00 0.00 26 1013.7
20260831140004 91 58 6.0 122.0 0.00 0.00 0.00 26 1013.6
20260831135504 91 50 6.0 122.0 0.00 0.00 0.00 26 1013.8
20260831135003 91 54 6.0 13.0 0.00 0.00 0.00 26 1013.8
20260831134504 91 67 5.0 11.0 0.00 0.00 0.00 27 1013.8
20260831134003 91 74 6.0 12.0 0.00 0.00 0.00 27 1013.8
20260831133503 91 55 7.0 13.0 0.00 0.00 0.00 28 1013.8
20260831133004 91 41 7.0 13.0 0.00 0.00 0.00 27 1013.8
20260831132503 91 53 6.0 13.0 0.00 0.00 0.00 27 1013.8
20260831131004 91 108 6.0 12.0 0.00 0.00 0.00 27 1013.9
20260831130503 91 112 6.0 12.0 0.00 0.00 0.00 27 1013.9
20260831130004 91 104 6.0 13.0 0.00 0.00 0.00 27 1014.0
20260831125503 91 93 7.0 13.0 0.00 0.00 0.00 28 1014.1
20260831125003 91 90 7.0 14.0 0.00 0.00 0.00 27 1013.9
20260831124504 91 96 4.0 14.0 0.00 0.00 0.00 28 1014.1
20260831124003 91 73 4.0 13.0 0.00 0.00 0.00 28 1014.1
20260831123503 91 67 5.0 13.0 0.00 0.00 0.00 28 1014.0
20260831123004 91 75 6.0 13.0 0.00 0.00 0.00 29 1014.3
20260831122503 91 80 7.0 13.0 0.00 0.00 0.00 30 1014.1
20260831122003 91 87 7.0 14.0 0.00 0.00 0.00 30 1014.2
20260831121504 91 85 6.0 14.0 0.00 0.00 0.00 30 1014.3
20260831121003 91 73 5.0 10.0 0.00 0.00 0.00 30 1014.4
20260831120502 90 94 6.0 13.0 0.00 0.00 0.00 30 1014.3
20260831114503 90 99 8.0 14.0 0.00 0.00 0.00 30 1014.6
20260831113004 90 86 6.0 13.0 0.00 0.00 0.00 30 1014.7
20260831112504 90 99 7.0 14.0 0.00 0.00 0.00 31 1014.8
20260831112003 90 118 7.0 14.0 0.00 0.00 0.00 30 1014.8
20260831111504 90 105 6.0 14.0 0.00 0.00 0.00 30 1014.8
20260831111003 90 82 5.0 14.0 0.00 0.00 0.00 30 1014.9
20260831110503 90 88 5.0 12.0 0.00 0.00 0.00 31 1014.9
20260831110004 89 106 6.0 15.0 0.00 0.00 0.00 31 1015.1
20260831105502 89 106 6.0 15.0 0.00 0.00 0.00 31 1015.0
20260831105004 89 115 7.0 13.0 0.00 0.00 0.00 31 1015.2
20260831104503 90 115 7.0 13.0 0.00 0.00 0.00 31 1015.1
20260831103004 90 37 5.0 11.0 0.00 0.00 0.00 31 1015.1
20260831102503 90 67 5.0 11.0 0.00 0.00 0.00 31 1015.3
20260831102004 90 74 5.0 10.0 0.00 0.00 0.00 31 1015.3
20260831101503 90 45 5.0 10.0 0.00 0.00 0.00 31 1015.3
20260831100503 90 95 5.0 13.0 0.00 0.00 0.00 31 1015.4
20260831100004 89 99 6.0 13.0 0.00 0.00 0.00 31 1015.4
20260831095503 90 67 6.0 13.0 0.00 0.00 0.00 31 1015.5
20260831095002 89 37 5.0 13.0 0.00 0.00 0.00 31 1015.5
20260831094504 89 70 4.0 11.0 0.00 0.00 0.00 31 1015.6
20260831094003 89 108 5.0 11.0 0.00 0.00 0.00 32 1015.6
20260831093503 89 113 5.0 11.0 0.00 0.00 0.00 32 1015.7
20260831093004 89 95 5.0 11.0 0.00 0.00 0.00 32 1015.7
20260831092502 89 85 5.0 11.0 0.00 0.00 0.00 32 1015.8
20260831091504 89 94 3.0 11.0 0.00 0.00 0.00 33 1015.8
20260831091003 89 131 2.0 8.0 0.00 0.00 0.00 35 1015.8
20260831090504 88 107 3.0 8.0 0.00 0.00 0.00 36 1015.7
20260831085503 89 99 3.0 9.0 0.00 0.00 0.00 34 1015.8
20260831084503 89 296 2.0 9.0 0.00 0.00 0.00 35 1015.9
20260831084003 89 285 1.0 5.0 0.00 0.00 0.00 36 1015.9
20260831083503 88 331 2.0 7.0 0.00 0.00 0.00 37 1016.0
20260831083004 87 328 3.0 7.0 0.00 0.00 0.00 37 1016.1
20260831082503 87 153 2.0 5.0 0.00 0.00 0.00 38 1016.1
20260831082003 86 110 3.0 6.0 0.00 0.00 0.00 38 1016.2
20260831081503 86 96 3.0 7.0 0.00 0.00 0.00 37 1016.2
20260831081003 86 96 3.0 7.0 0.00 0.00 0.00 38 1016.1
20260831080503 86 70 3.0 8.0 0.00 0.00 0.00 38 1016.2
20260831080004 86 83 2.0 8.0 0.00 0.00 0.00 38 1015.9
20260831075503 86 77 1.0 7.0 0.00 0.00 0.00 38 1015.9
20260831074503 85 57 2.0 7.0 0.00 0.00 0.00 38 1016.0
20260831074003 85 53 2.0 7.0 0.00 0.00 0.00 38 1016.1
20260831073503 85 94 2.0 5.0 0.00 0.00 0.00 39 1016.1
20260831073003 84 141 1.0 6.0 0.00 0.00 0.00 40 1016.0
20260831072003 84 21 2.0 6.0 0.00 0.00 0.00 42 1016.0
20260831071503 83 46 2.0 5.0 0.00 0.00 0.00 43 1015.9
20260831071003 83 62 2.0 5.0 0.00 0.00 0.00 44 1016.1
20260831070502 83 75 1.0 4.0 0.00 0.00 0.00 45 1015.9
20260831065003 81 93 1.0 4.0 0.00 0.00 0.00 46 1016.1
20260831064503 81 56 2.0 4.0 0.00 0.00 0.00 45 1016.2
20260831064003 81 60 2.0 4.0 0.00 0.00 0.00 46 1016.2
20260831063502 81 82 2.0 6.0 0.00 0.00 0.00 46 1016.3
20260831063003 80 71 2.0 6.0 0.00 0.00 0.00 46 1016.3
20260831062503 80 129 1.0 4.0 0.00 0.00 0.00 47 1016.4
20260831062003 79 202 0.0 3.0 0.00 0.00 0.00 46 1016.3
20260831061504 78 225 1.0 3.0 0.00 0.00 0.00 46 1016.3
20260831061003 78 225 1.0 3.0 0.00 0.00 0.00 46 1016.3
20260831060503 78 222 0.0 3.0 0.00 0.00 0.00 47 1016.2
20260831060004 77 95 0.0 3.0 0.00 0.00 0.00 48 1016.3
20260831055503 77 33 0.0 3.0 0.00 0.00 0.00 48 1016.1
20260831055003 76 19 0.0 3.0 0.00 0.00 0.00 49 1016.1
20260831054504 75 50 0.0 3.0 0.00 0.00 0.00 50 1016.3
20260831054003 74 53 1.0 4.0 0.00 0.00 0.00 50 1016.2
20260831053503 73 58 1.0 4.0 0.00 0.00 0.00 51 1016.1
20260831053004 73 92 0.0 3.0 0.00 0.00 0.00 52 1016.3
20260831052503 72 69 0.0 2.0 0.00 0.00 0.00 53 1016.3